Starlink 1669

operational
NORAD ID: 47624 Int'l Des: 2021-012 Owner: SPXS Country: US Constellation: starlink
LEOCIRCULAR

Starlink 1669について

説明を読み込み中...

リアルタイム位置

3D地球を読み込み中...

次回通過

高度履歴

Altitude vs Time

uPlot chart will show altitude changes over time

軌道要素

1 47624U 21012E 25302.21560354 .00139905 00000-0 36876-2 0 9996
2 47624 53.0487 265.6353 0011099 34.5920 325.5802 15.37466425260696
Epoch: Oct 29, 2025 • Age: 14 hours

現在のステータス

高度 446.7 km
速度 7.65 km/s
衛星直下点 6.66°N, 59.25°W
打ち上げ日 Feb 16, 2021
運用期間 4.6 years
タイプ internet

技術仕様

分類 Payload
質量 260.00 kg
乾燥質量 248.00 kg
総質量 260.00 kg
長さ 0.20 m
直径 2.80 m
スパン 9.00 m
形状 Box + pan
製造者 SPXS
バスタイプ Starlink
フェーズステータス In Orbit
所有者/国 SPXS/US

大規模コンステレーション

Loading constellations...